Content
SEND FEEDBACK

Daily
Averages
Monthly
Summary
Mexico

LEONA VICARIO, QUINTANA ROO


Home > North America > Mexico > Quintana Roo
Elevation: 26 feet     Latitude: 20 59N     Longitude: 087 12W

WEATHER
 
SELECT A DAY
Number of Records: 166,296;   Date Range: 1/1/95 - 10/18/14
 
SHARE

PRINT THIS DATA

[ ← Previous Day ]
WEATHER ALMANAC - JANUARY 23, 2013
[ Next Day → ]
[ °C ]   °F
Weather ElementAverageHighLow
Temperature71.5 °F77 °F (8:46 am)66.2 °F (5:51 pm)
Dewpoint66 °F68 °F (9:43 am)64.4 °F (3:42 pm)
Humidity82.9 %94 % (5:51 pm)69 % (8:46 am)
Barometer30.18 in30.23 in (10:45 am)30.10 in (2:40 am)
Wind Speed5.3 mph8.1 mph (8:46 am)
Weather ElementAverage
Visibility6.3 mi
Wind DirectionESE (116.7 °)

Weather ElementTotal
Precipitation---
Cooling Degree Days6.6 (Base 65)
Growing Degree Days21.6 (Base 50)
Averaged from 27 records on January 23, 2013
WEATHER CONDITIONS BREAKOUT
WIND DIRECTION BREAKOUT
WEATHER BY HOUR - JANUARY 23, 2013
[ °C ]   °F
Local TimeTemperatureDewpointHumidityBarometerVisibilityWind DirectionWind SpeedGust SpeedPrecipitationEventsConditions
12:52 AM73.4 °F66.2 °F78 %30.14 in7.0 miENE (60°)5.8 mphMostly Cloudy
1:43 AM73.4 °F66.2 °F78 %30.13 in7.0 miENE (70°)6.9 mphMostly Cloudy
2:40 AM73.4 °F66.2 °F78 %30.10 in7.0 miNE (50°)5.8 mphMostly Cloudy
4:07 AM73.4 °F66.2 °F78 %30.11 in7.0 miENE (60°)4.6 mphMostly Cloudy
4:42 AM73.4 °F66.2 °F78 %30.11 in7.0 miENE (70°)6.9 mphMostly Cloudy
5:45 AM73.4 °F66.2 °F78 %30.12 in7.0 miNE (50°)6.9 mphMostly Cloudy
6:47 AM73.4 °F66.2 °F78 %30.16 in7.0 miNE (40°)3.5 mphMostly Cloudy
7:45 AM75.2 °F66.2 °F73 %30.19 in7.0 miNE (50°)4.6 mphOvercast
8:46 AM77.0 °F66.2 °F69 %30.20 in7.0 miNE (40°)8.1 mphOvercast
9:43 AM75.2 °F68.0 °F78 %30.22 in6.0 miNE (50°)6.9 mphRainLight Rain
10:27 AM73.4 °F68.0 °F83 %30.22 in6.0 miNE (50°)6.9 mphOvercast
10:45 AM73.4 °F68.0 °F83 %30.23 in6.0 miNE (40°)4.6 mphOvercast
11:22 AM73.4 °F66.2 °F78 %30.23 in6.0 miNNE (20°)5.8 mphRainLight Rain
11:45 AM71.6 °F66.2 °F83 %30.22 in5.0 miNNE (30°)5.8 mphRainLight Rain
12:42 PM71.6 °F68.0 °F88 %30.20 in5.0 miNE (40°)4.6 mphRainLight Rain
1:19 PM73.4 °F68.0 °F83 %30.17 in6.0 miNE (40°)5.8 mphOvercast
1:47 PM75.2 °F68.0 °F78 %30.17 in6.0 miNE (40°)6.9 mphOvercast
2:51 PM73.4 °F66.2 °F78 %30.17 in6.0 miNNE (20°)3.5 mphOvercast
3:42 PM73.4 °F64.4 °F73 %30.18 in6.0 miNorth (360°)4.6 mphOvercast
4:40 PM68.0 °F64.4 °F88 %30.19 in6.0 miCalmOvercast
5:51 PM66.2 °F64.4 °F94 %30.19 in6.0 miNW (320°)3.5 mphOvercast
6:47 PM66.2 °F64.4 °F94 %30.18 in6.0 miNW (320°)5.8 mphOvercast
7:50 PM66.2 °F64.4 °F94 %30.18 in6.0 miNNW (340°)2.3 mphOvercast
8:44 PM66.2 °F64.4 °F94 %30.15 in6.0 miNW (320°)4.6 mphOvercast
9:48 PM66.2 °F64.4 °F94 %30.20 in6.0 miWNW (300°)5.8 mphOvercast
10:47 PM66.2 °F64.4 °F94 %30.20 in6.0 miWNW (300°)5.8 mphRainLight Rain
11:46 PM66.2 °F64.4 °F94 %30.17 in6.0 miENE (70°)5.8 mphRainLight Rain
Hourly data recorded from MMUN, located miles away from Leona Vicario, Quintana Roo







STORIES FROM OUR PARTNERS